Weather in Vrubivka

Ukraine / Luhansk Region     48°44′41″N   38°22′43″E
temp.,
°C
wind,
m/s
gust,
m/s
humid.,
%
clouds,
%
prec.,
mm/h
press.,
hPa
HPBL,
m
7 may, fri
fri700:00+12ssw346999 0.0 101155
03:00+10wsw347993 0.0 101163
06:00+11nw3790100 0.0 1012307
09:00+11nw4685100 0.0 1014598
12:00+16nw455424 0.1 10151552
15:00+18nw443762 0.1 10152225
18:00+18nnw113874 0.0 10151933
21:00+12ese225516 0.0 101617
8 may, sat
sat800:00+10se3972100 0.0 1016191
03:00+11se3872100 0.0 1015172
06:00+12s41177100 0.0 1014390
09:00+15s71265100 0.0 1013670
12:00+17s7961100 0.1 1012868
15:00+20ssw71051100 0.1 10101649
18:00+14wnw4686100 0.2 1010274
21:00+13wnw3694100 1.3 1011419
9 may, sun
sun900:00+9nw61189100 0.1 1012621
03:00+7nw71091100 3.3 1013674
06:00+7nw6991100 2.3 1014755
09:00+8nnw797599 3.0 10161158
12:00+10nnw81159100 0.1 10161544
15:00+11nnw71154100 0.1 10181831
18:00+11nnw7115845 0.0 10201350
21:00+7nw410715 0.0 1021254
10 may, mon
mon1000:00+6nw488053 0.0 1022230
03:00+6nw5127596 0.0 1022447
06:00+6nw61473100 0.0 1021593
09:00+9nnw81361100 0.0 10201370
12:00+8nnw81379100 1.3 10191276
15:00+7nnw81492100 6.3 10171036
18:00+7nnw61496100 3.9 1014910
21:00+10ne81494100 5.2 1014661
11 may, tue
tue1100:00+7ne4998100 1.3 1015511
03:00+7ne2596100 2.4 1015355
06:00+6e2596100 1.9 1015310
09:00+6e489094 5.6 1017627
12:00+8e8128588 0.4 10181187
15:00+7e81290100 0.5 1020937
18:00+7ene5119394 0.4 1022700
21:00+7ene51393100 0.5 1022404